DAL6037 MKJP-SKBQ

Flight info

Callsign DAL6037
Flight time 1h 13m
Altitude 37000
Route ALPEN3 ALPEN DCT ADSOV UP525 SINID DCT SIPOK DCT KOVAB DCT MORGI MORGI1B
Aircraft A320/M-SDE3FGHIRWY/LB1

Departure

Time 2026-04-27 00:45
Airport Norman Manley International Airport (MKJP)

Arrival

Time 2026-04-27 01:58
Airport Ernesto Cortissoz International Airport (SKBQ)
Time Latitude Longitude Altitude Speed Heading
2026-04-27 00:28 17.93573 -76.78045 19 ft 0 kts 102°
2026-04-27 00:38 17.93563 -76.78033 19 ft 5 kts 137°
2026-04-27 00:38 17.93530 -76.78046 18 ft 6 kts 245°
2026-04-27 00:38 17.93527 -76.78083 18 ft 5 kts 271°
2026-04-27 00:38 17.93529 -76.78112 18 ft 4 kts 273°
2026-04-27 00:39 17.93527 -76.78153 18 ft 10 kts 262°
2026-04-27 00:39 17.93532 -76.78238 18 ft 12 kts 286°
2026-04-27 00:39 17.93560 -76.78316 17 ft 11 kts 292°
2026-04-27 00:39 17.93587 -76.78385 17 ft 10 kts 292°
2026-04-27 00:40 17.93612 -76.78446 17 ft 9 kts 292°
2026-04-27 00:40 17.93646 -76.78537 16 ft 19 kts 291°
2026-04-27 00:40 17.93700 -76.78672 16 ft 21 kts 292°
2026-04-27 00:40 17.93757 -76.78821 15 ft 23 kts 291°
2026-04-27 00:41 17.93818 -76.78979 15 ft 24 kts 292°
2026-04-27 00:41 17.93883 -76.79147 16 ft 26 kts 291°
2026-04-27 00:41 17.93952 -76.79323 14 ft 26 kts 292°
2026-04-27 00:41 17.94011 -76.79476 14 ft 23 kts 291°
2026-04-27 00:42 17.94070 -76.79630 12 ft 21 kts 291°
2026-04-27 00:42 17.94100 -76.79769 11 ft 17 kts 278°
2026-04-27 00:42 17.94106 -76.79875 11 ft 8 kts 253°
2026-04-27 00:42 17.94102 -76.79885 11 ft 0 kts 241°
2026-04-27 00:43 17.94081 -76.79906 10 ft 6 kts 213°
2026-04-27 00:43 17.94046 -76.79920 10 ft 5 kts 189°
2026-04-27 00:43 17.94020 -76.79910 10 ft 3 kts 141°
2026-04-27 00:44 17.94009 -76.79890 10 ft 2 kts 112°
2026-04-27 00:44 17.94005 -76.79879 11 ft 1 kts 111°
2026-04-27 00:44 17.94003 -76.79874 10 ft 4 kts 111°
2026-04-27 00:44 17.93919 -76.79657 11 ft 74 kts 112°
2026-04-27 00:45 17.93618 -76.78880 16 ft 151 kts 112°
2026-04-27 00:45 17.93186 -76.77783 598 ft 165 kts 117°
2026-04-27 00:45 17.92378 -76.76936 1417 ft 169 kts 156°
2026-04-27 00:45 17.91210 -76.76813 2047 ft 176 kts 192°
2026-04-27 00:46 17.89941 -76.77145 2319 ft 199 kts 193°
2026-04-27 00:46 17.88493 -76.77160 2608 ft 223 kts 165°
2026-04-27 00:46 17.86962 -76.76619 3092 ft 241 kts 163°
2026-04-27 00:46 17.85300 -76.76118 3700 ft 256 kts 165°
2026-04-27 00:47 17.83551 -76.75635 4483 ft 262 kts 166°
2026-04-27 00:47 17.81774 -76.75155 5378 ft 265 kts 166°
2026-04-27 00:47 17.79984 -76.74664 6261 ft 268 kts 165°
2026-04-27 00:47 17.78171 -76.74151 7080 ft 272 kts 165°
2026-04-27 00:48 17.76334 -76.73619 7898 ft 276 kts 165°
2026-04-27 00:48 17.74467 -76.73079 8697 ft 280 kts 165°
2026-04-27 00:48 17.72584 -76.72537 9524 ft 282 kts 165°
2026-04-27 00:48 17.70677 -76.71980 10245 ft 288 kts 165°
2026-04-27 00:49 17.68684 -76.71403 10638 ft 307 kts 165°
2026-04-27 00:49 17.66587 -76.70806 10991 ft 325 kts 165°
2026-04-27 00:49 17.64379 -76.70171 11584 ft 333 kts 165°
2026-04-27 00:49 17.62116 -76.69513 12202 ft 341 kts 165°
2026-04-27 00:50 17.59785 -76.68834 12876 ft 345 kts 165°
2026-04-27 00:50 17.55160 -76.67472 14317 ft 349 kts 165°
2026-04-27 00:50 17.52816 -76.66780 14984 ft 352 kts 165°
2026-04-27 00:51 17.50437 -76.66089 15600 ft 356 kts 165°
2026-04-27 00:51 17.48034 -76.65403 16223 ft 360 kts 165°
2026-04-27 00:51 17.45603 -76.64709 16796 ft 364 kts 166°
2026-04-27 00:51 17.43153 -76.64009 17341 ft 368 kts 167°
2026-04-27 00:52 17.40658 -76.63294 17733 ft 376 kts 167°
2026-04-27 00:52 17.38982 -76.62811 18044 ft 379 kts 166°
2026-04-27 00:52 17.35550 -76.61815 18623 ft 387 kts 166°
2026-04-27 00:52 17.32940 -76.61051 19090 ft 391 kts 166°
2026-04-27 00:53 17.31198 -76.60540 19417 ft 393 kts 166°
2026-04-27 00:53 17.28515 -76.59982 19906 ft 394 kts 176°
2026-04-27 00:53 17.25772 -76.59883 20377 ft 396 kts 182°
2026-04-27 00:53 17.23005 -76.59873 20869 ft 399 kts 182°
2026-04-27 00:54 17.20225 -76.59868 21353 ft 401 kts 182°
2026-04-27 00:54 17.17419 -76.59859 21815 ft 404 kts 182°
2026-04-27 00:54 17.14596 -76.59845 22275 ft 408 kts 182°
2026-04-27 00:54 17.11752 -76.59831 22723 ft 410 kts 182°
2026-04-27 00:55 17.08885 -76.59820 23157 ft 413 kts 182°
2026-04-27 00:55 17.06000 -76.59810 23581 ft 416 kts 182°
2026-04-27 00:55 17.03099 -76.59794 23990 ft 419 kts 182°
2026-04-27 00:55 17.00176 -76.59775 24391 ft 421 kts 182°
2026-04-27 00:56 16.97235 -76.59755 24794 ft 423 kts 182°
2026-04-27 00:56 16.94286 -76.59740 25175 ft 425 kts 182°
2026-04-27 00:56 16.91319 -76.59726 25556 ft 427 kts 182°
2026-04-27 00:56 16.88343 -76.59709 25932 ft 429 kts 183°
2026-04-27 00:57 16.85356 -76.59694 26296 ft 430 kts 183°
2026-04-27 00:57 16.82359 -76.59676 26646 ft 431 kts 183°
2026-04-27 00:57 16.79351 -76.59657 26980 ft 433 kts 183°
2026-04-27 00:57 16.76332 -76.59642 27306 ft 435 kts 183°
2026-04-27 00:58 16.73301 -76.59625 27629 ft 436 kts 183°
2026-04-27 00:58 16.70261 -76.59611 27949 ft 438 kts 184°
2026-04-27 00:58 16.67203 -76.59591 28253 ft 440 kts 182°
2026-04-27 00:58 16.64144 -76.59261 28544 ft 446 kts 173°
2026-04-27 00:59 16.61118 -76.58439 28824 ft 451 kts 168°
2026-04-27 00:59 16.58099 -76.57514 29095 ft 453 kts 168°
2026-04-27 00:59 16.55070 -76.56589 29355 ft 455 kts 168°
2026-04-27 00:59 16.52030 -76.55666 29614 ft 456 kts 168°
2026-04-27 01:00 16.48981 -76.54742 29873 ft 457 kts 168°
2026-04-27 01:00 16.45919 -76.53814 30122 ft 459 kts 168°
2026-04-27 01:00 16.42850 -76.52884 30356 ft 460 kts 168°
2026-04-27 01:00 16.39764 -76.51949 30604 ft 462 kts 168°
2026-04-27 01:01 16.36675 -76.51014 30851 ft 462 kts 168°
2026-04-27 01:01 16.33626 -76.50089 31086 ft 463 kts 168°
2026-04-27 01:01 16.30530 -76.49148 31326 ft 463 kts 168°
2026-04-27 01:01 16.27399 -76.48198 31666 ft 461 kts 169°
2026-04-27 01:02 16.24361 -76.47279 31983 ft 460 kts 169°
2026-04-27 01:02 16.21293 -76.46350 32326 ft 458 kts 169°
2026-04-27 01:02 16.18244 -76.45424 32678 ft 456 kts 169°
2026-04-27 01:02 16.15209 -76.44502 33021 ft 453 kts 169°
2026-04-27 01:03 16.12186 -76.43587 33356 ft 451 kts 169°
2026-04-27 01:03 16.09179 -76.42682 33689 ft 449 kts 169°
2026-04-27 01:03 16.06182 -76.41780 34021 ft 447 kts 169°
2026-04-27 01:03 16.03200 -76.40879 34344 ft 445 kts 169°
2026-04-27 01:04 16.00232 -76.39981 34649 ft 444 kts 169°
2026-04-27 01:04 15.97276 -76.39086 34933 ft 442 kts 169°
2026-04-27 01:04 15.94325 -76.38196 35213 ft 441 kts 169°
2026-04-27 01:04 15.91388 -76.37309 35473 ft 439 kts 169°
2026-04-27 01:05 15.88456 -76.36422 35722 ft 438 kts 169°
2026-04-27 01:05 15.85530 -76.35536 35955 ft 438 kts 169°
2026-04-27 01:05 15.82614 -76.34655 36181 ft 436 kts 169°
2026-04-27 01:05 15.79695 -76.33776 36386 ft 436 kts 169°
2026-04-27 01:06 15.76781 -76.32903 36576 ft 436 kts 169°
2026-04-27 01:06 15.73868 -76.32030 36775 ft 435 kts 169°
2026-04-27 01:06 15.70965 -76.31155 36914 ft 433 kts 169°
2026-04-27 01:07 15.65231 -76.29422 36943 ft 426 kts 169°
2026-04-27 01:07 15.59593 -76.27729 36944 ft 424 kts 169°
2026-04-27 01:08 15.53940 -76.26036 36943 ft 423 kts 169°
2026-04-27 01:08 15.48289 -76.24340 36942 ft 423 kts 169°
2026-04-27 01:09 15.42645 -76.22639 36944 ft 423 kts 169°
2026-04-27 01:09 15.36999 -76.20943 36946 ft 422 kts 169°
2026-04-27 01:10 15.31352 -76.19252 36948 ft 422 kts 169°
2026-04-27 01:10 15.25705 -76.17561 36951 ft 422 kts 169°
2026-04-27 01:11 15.20053 -76.15865 36954 ft 423 kts 169°
2026-04-27 01:11 15.14403 -76.14173 36959 ft 422 kts 169°
2026-04-27 01:12 15.08759 -76.12482 36957 ft 422 kts 169°
2026-04-27 01:12 15.03127 -76.10794 36954 ft 422 kts 169°
2026-04-27 01:13 14.97499 -76.09093 36952 ft 422 kts 168°
2026-04-27 01:13 14.91904 -76.07243 36953 ft 422 kts 166°
2026-04-27 01:14 14.86333 -76.05345 36955 ft 422 kts 166°
2026-04-27 01:14 14.80752 -76.03465 36955 ft 421 kts 167°
2026-04-27 01:15 14.75172 -76.01614 36957 ft 421 kts 167°
2026-04-27 01:15 14.69593 -75.99773 36957 ft 421 kts 167°
2026-04-27 01:16 14.64019 -75.97935 36956 ft 420 kts 167°
2026-04-27 01:16 14.58442 -75.96098 36955 ft 420 kts 166°
2026-04-27 01:17 14.52919 -75.94262 36955 ft 420 kts 166°
2026-04-27 01:17 14.47355 -75.92421 36954 ft 419 kts 166°
2026-04-27 01:18 14.41799 -75.90591 36952 ft 419 kts 166°
2026-04-27 01:18 14.36247 -75.88752 36949 ft 419 kts 166°
2026-04-27 01:19 14.30703 -75.86925 36941 ft 418 kts 166°
2026-04-27 01:19 14.25167 -75.85101 36934 ft 418 kts 166°
2026-04-27 01:20 14.19623 -75.83271 36934 ft 418 kts 166°
2026-04-27 01:20 14.14078 -75.81444 36939 ft 418 kts 166°
2026-04-27 01:21 14.08546 -75.79624 36938 ft 417 kts 166°
2026-04-27 01:21 14.03010 -75.77808 36938 ft 418 kts 166°
2026-04-27 01:22 13.97472 -75.75980 36941 ft 418 kts 166°
2026-04-27 01:22 13.91931 -75.74153 36943 ft 418 kts 166°
2026-04-27 01:23 13.86393 -75.72332 36944 ft 418 kts 166°
2026-04-27 01:23 13.80849 -75.70513 36940 ft 418 kts 166°
2026-04-27 01:24 13.75308 -75.68696 36938 ft 418 kts 166°
2026-04-27 01:24 13.69763 -75.66877 36937 ft 418 kts 166°
2026-04-27 01:25 13.64225 -75.65062 36934 ft 418 kts 166°
2026-04-27 01:25 13.58688 -75.63241 36929 ft 417 kts 166°
2026-04-27 01:26 13.53160 -75.61427 36927 ft 417 kts 166°
2026-04-27 01:26 13.47628 -75.59614 36924 ft 418 kts 166°
2026-04-27 01:27 13.42094 -75.57799 36925 ft 417 kts 166°
2026-04-27 01:27 13.36592 -75.56004 36920 ft 418 kts 166°
2026-04-27 01:28 13.31008 -75.54183 36913 ft 418 kts 166°
2026-04-27 01:28 13.25492 -75.52381 36918 ft 419 kts 166°
2026-04-27 01:29 13.19935 -75.50562 36928 ft 419 kts 166°
2026-04-27 01:29 13.14370 -75.48744 36929 ft 420 kts 166°
2026-04-27 01:30 13.08802 -75.46926 36928 ft 420 kts 165°
2026-04-27 01:30 13.03225 -75.45109 36931 ft 420 kts 165°
2026-04-27 01:31 12.97649 -75.43292 36932 ft 421 kts 165°
2026-04-27 01:31 12.92065 -75.41491 36929 ft 420 kts 167°
2026-04-27 01:32 12.86424 -75.39954 36930 ft 419 kts 169°
2026-04-27 01:32 12.80754 -75.38547 36930 ft 419 kts 169°
2026-04-27 01:33 12.75087 -75.37111 36927 ft 420 kts 168°
2026-04-27 01:33 12.69427 -75.35625 36930 ft 420 kts 168°
2026-04-27 01:34 12.63775 -75.34120 36928 ft 420 kts 168°
2026-04-27 01:34 12.58118 -75.32626 36929 ft 420 kts 168°
2026-04-27 01:35 12.52453 -75.31138 36932 ft 420 kts 168°
2026-04-27 01:35 12.46825 -75.29665 36920 ft 420 kts 168°
2026-04-27 01:36 12.41154 -75.28173 36869 ft 421 kts 168°
2026-04-27 01:36 12.38315 -75.27428 36611 ft 421 kts 168°
2026-04-27 01:36 12.35482 -75.26686 36111 ft 422 kts 168°
2026-04-27 01:36 12.32632 -75.25943 35326 ft 424 kts 168°
2026-04-27 01:37 12.29769 -75.25197 34711 ft 422 kts 168°
2026-04-27 01:37 12.26937 -75.24455 34174 ft 419 kts 168°
2026-04-27 01:37 12.24116 -75.23716 33627 ft 417 kts 168°
2026-04-27 01:37 12.21315 -75.22982 33070 ft 414 kts 168°
2026-04-27 01:38 12.18533 -75.22253 32521 ft 412 kts 168°
2026-04-27 01:38 12.15767 -75.21524 31973 ft 410 kts 168°
2026-04-27 01:38 12.13009 -75.20796 31444 ft 408 kts 168°
2026-04-27 01:38 12.10270 -75.20080 30907 ft 406 kts 168°
2026-04-27 01:39 12.07542 -75.19370 30384 ft 404 kts 168°
2026-04-27 01:39 12.04825 -75.18662 29860 ft 402 kts 168°
2026-04-27 01:39 12.02126 -75.17956 29354 ft 400 kts 168°
2026-04-27 01:39 11.99433 -75.17247 28848 ft 398 kts 168°
2026-04-27 01:40 11.96761 -75.16544 28363 ft 396 kts 167°
2026-04-27 01:40 11.94098 -75.15846 27878 ft 394 kts 167°
2026-04-27 01:40 11.91452 -75.15157 27414 ft 392 kts 167°
2026-04-27 01:40 11.88818 -75.14473 26944 ft 389 kts 167°
2026-04-27 01:41 11.86201 -75.13794 26500 ft 386 kts 167°
2026-04-27 01:41 11.83640 -75.13128 26058 ft 384 kts 167°
2026-04-27 01:41 11.81898 -75.12672 25747 ft 382 kts 167°
2026-04-27 01:41 11.78506 -75.11782 25137 ft 378 kts 167°
2026-04-27 01:42 11.75965 -75.11119 24660 ft 376 kts 166°
2026-04-27 01:42 11.73439 -75.10458 24186 ft 374 kts 166°
2026-04-27 01:42 11.70927 -75.09801 23712 ft 371 kts 166°
2026-04-27 01:42 11.68431 -75.09148 23217 ft 369 kts 166°
2026-04-27 01:43 11.66753 -75.08710 22882 ft 368 kts 166°
2026-04-27 01:43 11.64237 -75.08250 22412 ft 366 kts 174°
2026-04-27 01:43 11.61743 -75.07964 21929 ft 365 kts 174°
2026-04-27 01:43 11.59224 -75.07673 21457 ft 364 kts 174°
2026-04-27 01:44 11.56712 -75.07379 20985 ft 363 kts 174°
2026-04-27 01:44 11.54207 -75.07087 20518 ft 361 kts 174°
2026-04-27 01:44 11.51719 -75.06798 20053 ft 359 kts 174°
2026-04-27 01:44 11.49233 -75.06507 19590 ft 358 kts 174°
2026-04-27 01:45 11.46768 -75.06220 19140 ft 356 kts 174°
2026-04-27 01:45 11.44307 -75.05936 18685 ft 355 kts 174°
2026-04-27 01:45 11.41861 -75.05656 18241 ft 354 kts 174°
2026-04-27 01:45 11.39432 -75.05376 17881 ft 349 kts 174°
2026-04-27 01:46 11.37020 -75.05094 17455 ft 348 kts 174°
2026-04-27 01:46 11.34620 -75.04811 17018 ft 347 kts 174°
2026-04-27 01:46 11.32226 -75.04529 16586 ft 345 kts 174°
2026-04-27 01:46 11.29843 -75.04251 16164 ft 344 kts 174°
2026-04-27 01:47 11.27468 -75.03973 15742 ft 342 kts 174°
2026-04-27 01:47 11.25104 -75.03699 15329 ft 341 kts 174°
2026-04-27 01:47 11.22753 -75.03426 14903 ft 339 kts 174°
2026-04-27 01:47 11.20410 -75.03155 14483 ft 338 kts 174°
2026-04-27 01:48 11.18081 -75.02886 14068 ft 336 kts 174°
2026-04-27 01:48 11.15759 -75.02617 13654 ft 335 kts 174°
2026-04-27 01:48 11.13454 -75.02349 13242 ft 332 kts 174°
2026-04-27 01:48 11.11164 -75.02083 12826 ft 331 kts 174°
2026-04-27 01:49 11.08916 -75.01824 12409 ft 329 kts 174°
2026-04-27 01:49 11.06646 -75.01563 11997 ft 327 kts 174°
2026-04-27 01:49 11.04427 -75.01305 11845 ft 314 kts 174°
2026-04-27 01:49 11.02295 -75.01056 11309 ft 306 kts 174°
2026-04-27 01:50 11.00183 -75.00813 10785 ft 305 kts 174°
2026-04-27 01:50 10.98107 -75.00573 10375 ft 298 kts 173°
2026-04-27 01:50 10.96058 -75.00335 9971 ft 293 kts 173°
2026-04-27 01:50 10.94051 -75.00101 9569 ft 287 kts 173°
2026-04-27 01:51 10.92084 -74.99873 9182 ft 281 kts 173°
2026-04-27 01:51 10.90159 -74.99650 8789 ft 276 kts 173°
2026-04-27 01:51 10.88275 -74.99432 8407 ft 270 kts 173°
2026-04-27 01:51 10.86430 -74.99216 8029 ft 264 kts 173°
2026-04-27 01:52 10.84625 -74.99004 7643 ft 259 kts 173°
2026-04-27 01:52 10.82857 -74.98798 7260 ft 253 kts 173°
2026-04-27 01:52 10.81175 -74.98398 6885 ft 246 kts 155°
2026-04-27 01:52 10.79752 -74.97467 6495 ft 243 kts 136°
2026-04-27 01:53 10.78630 -74.96179 6098 ft 245 kts 129°
2026-04-27 01:53 10.77536 -74.94869 5678 ft 240 kts 130°
2026-04-27 01:53 10.76466 -74.93594 5291 ft 233 kts 129°
2026-04-27 01:53 10.75458 -74.92329 4896 ft 228 kts 119°
2026-04-27 01:54 10.75106 -74.90827 4527 ft 217 kts 81°
2026-04-27 01:54 10.75683 -74.89486 4209 ft 204 kts 46°
2026-04-27 01:54 10.76825 -74.88715 3832 ft 191 kts 28°
2026-04-27 01:54 10.77855 -74.87965 3518 ft 174 kts 40°
2026-04-27 01:55 10.78711 -74.87175 3243 ft 160 kts 41°
2026-04-27 01:55 10.79501 -74.86433 2968 ft 149 kts 41°
2026-04-27 01:55 10.80254 -74.85735 2715 ft 145 kts 40°
2026-04-27 01:55 10.80973 -74.85030 2423 ft 142 kts 44°
2026-04-27 01:56 10.82402 -74.83669 1969 ft 140 kts 38°
2026-04-27 01:56 10.83151 -74.83039 1725 ft 139 kts 38°
2026-04-27 01:56 10.83902 -74.82422 1452 ft 138 kts 37°
2026-04-27 01:57 10.84638 -74.81799 1176 ft 137 kts 39°
2026-04-27 01:57 10.85369 -74.81163 849 ft 138 kts 38°
2026-04-27 01:57 10.86109 -74.80551 613 ft 137 kts 39°
2026-04-27 01:57 10.86836 -74.79908 422 ft 138 kts 37°
2026-04-27 01:58 10.87580 -74.79272 210 ft 139 kts 38°
2026-04-27 01:58 10.88311 -74.78643 88 ft 129 kts 39°
2026-04-27 01:58 10.88871 -74.78169 78 ft 80 kts 40°
2026-04-27 01:58 10.89171 -74.77917 70 ft 38 kts 40°
2026-04-27 01:59 10.89336 -74.77768 66 ft 23 kts 45°
2026-04-27 01:59 10.89369 -74.77719 62 ft 0 kts 66°
2026-04-27 01:59 10.89382 -74.77667 66 ft 15 kts 84°
2026-04-27 01:59 10.89370 -74.77566 61 ft 14 kts 125°
2026-04-27 02:00 10.89288 -74.77526 66 ft 12 kts 161°
2026-04-27 02:00 10.89214 -74.77499 61 ft 10 kts 161°
2026-04-27 02:00 10.89139 -74.77492 60 ft 10 kts 193°
2026-04-27 02:00 10.89067 -74.77541 64 ft 16 kts 220°
2026-04-27 02:01 10.88983 -74.77613 64 ft 15 kts 221°
2026-04-27 02:01 10.88907 -74.77677 72 ft 12 kts 219°
2026-04-27 02:01 10.88850 -74.77726 66 ft 9 kts 217°
2026-04-27 02:01 10.88804 -74.77713 69 ft 7 kts 130°
2026-04-27 02:02 10.88783 -74.77687 73 ft 0 kts 129°